RH
76 95 100 100 97 86 73 53 41 35 38 45 49 53 64 88 89 81 75 68 66 66 67 68 67 42 34 34 36 36 29 20 18 23 21 22 23 28 69 79 79 60 70 100
81 90 82 78 68 63 60 50 42 43 41 42 47 52 59 68 65 64 68 61 51 48 47 42 34 32 30 28 27 24 25 14 8 9 14 17 22 26 28 70 57 75 57 100
93 93 73 62 60 50 43 44 43 42 42 39 42 49 58 71 60 59 55 44 34 28 27 25 23 22 16 12 12 12 12 15 10 7 9 16 18 19 19 34 40 100 71 78
77 81 74 67 56 48 43 42 43 52 50 42 44 47 49 44 40 36 30 29 27 28 26 17 9 8 8 8 8 8 7 8 8 7 6 10 14 18 34 28 41 95 85 58
59 57 56 54 55 52 45 51 53 44 48 43 44 42 41 32 33 32 30 30 36 40 27 13 8 7 6 5 5 6 6 6 5 6 6 8 12 22 100 100 90 42 81 58
72 71 61 64 68 64 56 62 64 54 61 56 53 49 47 36 32 29 32 32 34 23 12 8 6 6 6 4 4 3 4 4 5 6 7 10 14 16 80 95 100 33 64 67
78 74 75 78 73 62 63 62 61 62 72 69 65 63 53 36 30 24 23 26 20 12 9 7 5 4 3 2 3 3 3 4 6 7 9 14 14 17 22 63 39 32 45 73
86 75 76 69 57 57 61 60 75 75 76 79 81 74 55 39 28 27 28 27 12 12 8 5 4 3 3 3 3 3 3 4 6 9 12 15 17 20 24 28 34 41 38 68
86 66 57 55 64 57 53 76 77 76 79 76 70 64 53 41 36 32 36 22 17 11 7 6 4 5 5 4 4 4 4 6 8 10 12 17 23 25 25 30 30 29 31 54
91 73 67 66 58 54 64 77 76 96 100 87 75 52 51 38 43 41 34 20 17 9 9 8 7 8 7 6 5 5 6 8 11 12 14 21 23 24 25 25 27 24 30 48
93 70 72 74 55 58 81 97 94 83 81 81 78 60 47 37 32 37 23 21 15 14 16 13 10 9 9 8 6 8 10 11 13 29 20 40 38 27 26 25 25 25 29 41
86 67 67 56 70 84 83 84 78 78 85 87 72 61 45 28 33 34 29 21 19 30 38 24 15 13 9 14 11 13 13 22 36 19 31 24 31 40 40 22 20 19 27 39
84 82 66 68 96 94 85 81 84 75 88 76 69 62 38 27 30 32 30 30 46 51 42 36 29 18 19 26 17 17 21 25 43 39 56 44 37 55 42 22 20 27 33 52
97 81 70 76 98 91 96 96 88 81 74 74 69 60 44 33 34 37 32 42 64 75 63 51 45 72 50 67 40 22 22 23 25 31 41 40 36 45 43 68 57 33 45 80
94 91 76 88 79 87 99 86 87 78 79 76 64 46 39 35 37 40 31 52 95 92 72 69 81 75 97 96 41 26 27 44 39 35 24 22 28 34 32 75 88 89 100 100
100 100 96 70 72 83 81 76 75 77 75 68 50 49 47 39 37 37 26 61 100 97 86 81 91 96 100 100 77 38 36 50 55 41 34 31 58 98 46 100 100 100 100 100
99 100 78 73 82 92 94 89 72 74 84 71 52 53 47 40 37 34 21 66 100 98 99 91 80 96 100 100 100 93 98 92 100 100 98 97 100 100 100 100 100 100 100 100
90 86 69 98 100 100 93 88 74 89 88 69 58 59 47 39 43 30 22 68 100 99 94 78 82 64 98 100 100 100 100 100 100 100 100 100 100 100 100 100 100 100 98 100
84 92 100 100 100 100 88 71 80 90 94 67 61 54 46 46 44 29 25 80 100 100 94 81 88 79 100 100 100 100 100 100 100 100 100 100 100 100 100 100 100 100 100 100
100 100 100 100 100 96 77 77 86 89 76 65 61 47 43 54 44 30 23 89 98 95 94 94 96 79 100 86 100 100 100 100 100 100 100 100 100 99 100 100 100 100 100 100
100 100 100 100 96 80 83 88 83 76 71 71 56 42 44 50 44 26 21 37 92 96 86 96 93 96 99 88 86 100 100 100 92 100 100 100 100 99 100 100 100 99 100 100
100 100 100 86 83 86 95 92 81 82 73 58 47 38 46 45 36 22 17 22 69 93 83 90 99 90 96 100 72 87 100 100 100 93 95 95 100 100 100 100 100 100 100 100
100 95 96 90 94 95 93 84 77 77 67 52 40 40 44 41 27 19 16 18 25 79 95 84 92 98 94 98 90 81 84 100 97 100 99 94 95 94 100 100 100 100 100 100
99 89 92 90 94 91 81 80 78 68 53 48 43 38 36 24 19 17 15 15 19 28 86 94 85 90 98 96 93 72 83 90 83 68 77 88 88 97 93 100 100 100 100 100
91 95 92 90 88 80 79 77 66 52 51 48 39 25 17 16 16 14 13 13 15 18 37 84 90 97 98 100 95 88 96 81 82 69 65 68 71 89 96 92 99 100 98 91
96 95 83 76 77 78 71 63 54 50 45 32 19 15 14 14 13 12 12 11 13 16 16 57 86 95 98 94 99 99 89 98 93 85 62 68 76 76 79 86 88 91 90 96
Wind_Speed
64 62 62 62 62 61 65 67 65 64 65 59 65 68 75 76 78 80 82 82 83 87 91 95 96 97 98 99 101 100 101 98 94 91 85 78 72 68 64 71 72 68 69 66
71 71 69 68 67 68 70 70 66 65 65 66 67 67 74 78 80 82 84 85 87 88 92 92 96 102 102 104 112 110 114 103 87 79 86 80 78 73 71 74 73 72 71 67
79 73 73 74 72 72 72 70 71 71 69 70 69 72 72 78 83 85 86 86 83 81 87 95 103 111 114 111 110 110 103 116 93 78 78 80 81 77 70 71 71 73 72 70
79 81 75 71 74 75 76 73 72 77 72 70 69 71 77 77 78 78 74 75 77 82 87 101 103 101 98 97 93 92 88 96 90 79 78 73 76 73 64 71 74 79 76 75
83 83 80 77 76 77 75 78 82 80 73 71 70 70 77 74 72 69 68 74 86 91 97 98 98 93 89 81 70 67 65 73 71 70 75 69 70 64 78 75 73 80 83 77
81 79 80 76 78 80 82 87 88 80 75 75 75 75 79 75 70 65 74 76 85 89 93 87 81 73 71 67 58 52 54 51 51 57 63 61 74 74 78 84 85 81 85 78
81 79 78 80 80 81 86 81 78 75 74 77 76 77 79 77 70 66 63 68 81 80 71 60 56 54 54 47 44 40 38 39 44 49 48 58 74 75 83 87 79 82 83 81
82 82 82 81 83 83 80 79 73 72 70 71 73 77 82 78 71 73 73 65 66 62 53 51 46 40 41 37 35 32 31 35 41 43 47 60 67 73 81 80 85 83 81 78
85 85 82 80 82 81 74 68 70 69 67 67 72 78 81 80 76 72 83 62 56 52 44 45 40 42 38 34 31 27 25 27 35 45 52 56 65 73 78 78 82 78 78 76
88 89 85 87 80 74 69 68 70 65 67 71 73 77 79 78 78 78 67 51 50 44 41 41 42 40 35 27 21 18 24 30 37 39 41 46 58 67 72 74 76 73 74 75
89 91 89 89 84 75 71 69 68 71 70 73 76 81 80 75 67 58 51 44 41 38 38 41 40 37 26 19 15 14 19 24 33 37 44 49 54 61 66 67 68 65 68 70
95 90 90 82 76 77 74 71 72 71 71 75 78 79 77 64 58 50 43 40 35 33 34 40 40 31 21 11 16 20 26 29 23 25 31 42 53 60 64 64 59 54 57 62
92 89 85 77 77 78 74 74 73 69 68 72 74 76 68 57 49 42 39 34 30 32 34 26 30 19 9 6 15 26 30 32 34 36 40 44 51 54 60 54 46 46 53 59
88 87 82 79 79 75 73 71 67 64 65 67 68 66 67 54 46 38 35 30 31 32 26 24 14 3 4 5 10 17 23 34 41 47 46 49 50 50 47 38 38 45 47 52
80 80 84 80 73 66 65 61 61 63 62 62 65 64 59 50 47 34 31 32 34 30 31 18 20 11 3 3 11 20 25 28 31 34 35 39 41 44 42 37 34 39 41 41
83 83 85 82 63 66 63 63 63 63 62 62 62 59 59 51 45 32 30 37 41 37 34 33 27 22 17 8 15 29 36 36 31 29 31 35 32 30 38 41 46 46 42 49
84 83 85 63 62 65 69 74 72 64 61 63 61 60 58 52 39 30 29 42 47 45 38 35 32 34 30 35 43 44 48 47 48 43 44 46 42 32 39 43 52 52 51 47
86 84 73 59 63 68 72 75 70 62 63 62 61 61 58 51 34 29 30 45 54 50 45 44 39 38 36 55 48 52 59 61 61 57 50 52 48 45 47 49 49 51 50 47
82 63 61 63 67 72 74 68 64 63 64 65 62 61 55 45 32 30 27 48 60 56 50 49 45 44 46 51 54 57 65 66 65 61 55 54 55 57 57 56 51 54 54 55
65 67 65 66 72 70 70 64 63 61 64 65 64 60 51 41 36 30 27 53 66 63 54 55 54 53 51 51 56 61 66 72 68 65 62 56 59 60 67 69 65 59 63 58
65 62 64 61 67 67 62 63 61 64 66 68 66 61 48 39 36 35 31 43 70 70 64 60 60 58 56 54 56 54 68 74 79 76 69 64 59 60 71 77 76 74 67 67
58 61 63 65 64 59 62 60 64 67 70 68 66 56 43 37 37 38 36 37 66 78 70 68 68 64 62 58 58 61 63 70 74 77 77 74 70 66 75 78 81 81 76 77
63 67 66 59 61 62 62 64 67 71 71 71 60 49 41 39 41 41 39 38 51 76 80 76 70 70 70 63 62 62 68 63 73 78 78 77 75 70 77 81 85 86 86 86
56 55 57 59 62 61 63 66 69 71 69 64 55 46 43 42 42 43 42 42 47 65 83 80 79 75 75 72 68 66 67 70 64 67 70 75 75 74 76 79 85 88 87 89
52 56 60 61 61 64 66 68 70 66 59 53 50 47 43 42 43 45 45 44 46 56 75 86 83 80 78 77 75 72 66 66 67 67 59 60 65 68 74 76 81 87 89 87
56 57 59 63 64 66 67 68 64 56 52 49 47 45 44 42 42 42 43 44 47 54 62 82 91 87 85 81 79 75 72 70 67 66 64 57 61 65 68 71 75 77 79 77
Wind_Direction
271 275 280 278 279 279 283 282 284 287 278 278 279 278 277 274 271 270 270 272 273 273 273 273 272 273 271 267 263 267 266 265 262 257 255 254 252 247 243 242 238 232 229 232
267 271 276 278 280 281 282 284 285 286 287 279 278 278 277 276 276 277 277 278 278 278 275 273 269 266 260 257 259 258 259 264 271 264 255 250 246 245 241 240 239 234 227 229
269 273 276 278 278 281 285 284 286 289 289 287 280 278 276 276 278 278 280 281 280 273 267 264 263 262 266 271 270 273 272 265 269 266 263 252 248 246 245 242 239 234 230 227
271 275 276 278 279 285 286 285 288 289 289 289 281 279 279 278 280 283 284 286 286 284 281 272 273 277 279 276 274 272 269 264 261 256 254 251 246 244 248 243 235 231 230 225
275 274 278 280 283 287 291 290 288 291 292 291 288 287 286 284 290 293 293 294 297 297 281 280 285 285 283 279 276 271 262 260 257 249 244 239 236 233 219 236 239 233 231 225
275 277 278 282 286 289 292 294 293 292 293 293 292 291 290 293 297 299 298 299 297 284 281 284 285 284 279 280 279 269 260 260 250 237 234 232 229 225 212 218 233 234 231 226
277 279 281 283 286 289 292 292 292 290 292 293 293 293 294 299 303 298 293 295 286 286 290 288 285 280 277 276 276 273 256 244 232 224 221 219 219 221 220 223 228 232 231 227
277 280 282 283 286 290 292 291 290 289 290 292 293 293 295 300 303 304 305 304 294 294 295 296 293 289 291 291 286 268 248 231 217 206 206 206 210 216 216 213 221 227 228 226
279 280 283 289 292 291 291 292 292 291 292 292 292 294 298 301 305 310 310 304 302 298 302 303 301 298 296 295 284 262 231 218 207 198 195 199 207 212 212 213 222 226 227 223
281 283 286 289 291 293 297 293 294 292 290 292 295 296 299 305 307 313 306 303 301 302 305 301 304 296 296 294 274 245 223 199 190 193 194 200 207 208 211 216 222 225 226 221
280 283 287 289 291 298 301 298 293 290 292 294 294 297 301 304 311 312 302 300 299 300 301 301 297 289 283 277 257 231 200 198 190 187 190 194 205 209 213 220 224 227 227 223
280 285 287 290 296 296 295 291 292 291 292 291 295 297 302 308 313 316 307 301 298 290 282 294 285 280 265 259 217 190 182 170 173 186 192 198 202 208 215 220 225 230 228 224
281 284 286 293 295 293 294 296 293 291 290 294 299 301 305 312 314 314 303 291 276 272 284 263 277 267 204 195 196 186 174 170 172 178 187 195 201 208 214 220 226 227 224 220
280 282 284 290 291 292 292 288 289 289 293 297 297 301 305 311 319 310 295 273 259 252 236 252 229 144 135 188 186 195 190 183 182 180 183 190 194 200 211 211 220 223 216 214
278 278 282 288 289 288 282 287 289 292 294 293 297 301 304 313 318 299 278 251 237 237 233 218 168 168 140 138 174 174 172 175 182 185 187 192 194 199 200 193 198 205 202 204
277 276 281 289 285 285 283 287 292 292 292 292 298 302 308 314 310 289 263 238 224 218 235 193 172 163 170 159 169 160 157 154 153 165 177 181 172 176 189 176 189 203 201 203
274 276 284 286 286 285 282 285 290 291 288 294 298 303 305 312 303 282 261 227 217 216 229 192 181 181 158 161 154 155 150 151 145 148 157 162 164 180 185 196 192 195 210 213
276 282 281 282 276 275 280 285 287 284 287 293 298 303 304 304 295 277 258 222 214 211 212 204 194 186 166 165 171 163 161 158 162 165 169 176 186 192 193 201 202 209 217 222
279 279 276 273 271 276 279 283 285 286 285 289 297 299 301 296 289 273 255 221 213 211 207 199 197 189 181 184 179 174 171 170 175 179 186 188 189 195 196 197 201 210 213 224
270 275 268 267 271 271 278 281 284 282 284 290 294 296 299 288 282 266 250 223 215 214 211 195 197 195 189 190 187 189 182 180 184 187 192 199 203 201 202 204 201 206 215 217
264 265 266 268 268 274 276 281 281 282 286 290 292 296 292 280 275 267 245 233 219 216 207 204 201 198 199 202 195 190 194 192 192 193 196 203 203 211 206 205 209 209 209 215
262 265 268 268 269 273 277 276 279 283 286 290 292 292 285 278 272 262 250 241 225 220 214 209 207 206 207 208 205 200 202 203 200 203 204 205 207 210 208 209 213 212 217 217
263 264 264 263 268 271 273 276 280 283 286 290 292 289 283 276 269 263 253 243 231 222 221 213 213 211 210 212 212 212 211 213 207 208 209 210 213 213 214 213 217 219 221 222
258 258 264 266 269 271 274 278 281 284 287 289 288 285 280 271 266 262 255 246 236 226 222 217 217 217 217 218 220 218 219 222 221 218 218 220 221 223 221 221 222 223 225 226
258 261 263 265 268 274 278 279 282 286 287 286 287 283 276 271 265 260 255 246 238 229 222 223 219 216 219 220 221 223 225 227 230 229 227 228 229 228 226 226 228 230 232 233
259 260 263 269 273 275 277 280 283 286 287 286 287 285 282 276 266 258 253 245 237 228 224 222 224 220 221 223 224 226 227 228 233 239 234 230 231 232 232 233 235 236 236 239